CZ-6A DEB, 60785

Orbit data source: Space-Track

CZ-6A DEB, 60785 is space debris in LEO originally from a launch on Tue, 06 Aug 2024 UTC launched from the Taiyaun Space Center, China (TSC). Debris objects in space refer to the collection of defunct objects orbiting the Earth. Examples of debris include non-operational satellites, rocket bodies, and fragments generated from explosions, collisions, or faulty payload assembly.

Loading next visibility...
Identifier
60785, 2024-140FL
Orbit
LEO
Country
Flag of CNCN / PRC
Related business
Manufacturer
SAST
Mission
Spacecraft
Bus & Motor
Unknown
Mass
Unknown
Launch date (UTC)
2024-08-06 (2 years ago)
Launch vehicle
Unknown
Launch site
Taiyaun Space Center, China (TSC)
Object type
Payload
Rocket body
Debris
Shape & HBR
Unknown shape, 0.2 m
Radar Cross Section
Medium (>0.1 m² and <1 m²)

Expand to show TLE details & history
Last TLE update: 15 hours ago

TLE from 15 hours ago
0 CZ-6A DEB
1 60785U 24140FL  26171.29569308  .00000201  00000-0  48140-4 0  9990
2 60785  88.9913 269.9267 0095441 288.0938  70.9889 14.47028964 97909
Epoch: 2026-06-20T07:05Z
TLE epoch observation values (Epoch: 2026-06-20T07:05:47.882Z)
Latitude
-0.00001°
Longitude
-105.03517°
Altitude
716.922 km
Speed
7.508 km/s
True Right ascension
17h 59m 42s
True Declination
0° 00' 00"
Sunlit
Object was in full shadow at epoch
Visualization orbit readout
Latitude
Unknown
Longitude
Unknown
Altitude
Unknown
Speed
Unknown
Apparent Right ascension
Unknown
Apparent Declination
Unknown
Sunlit
N/A
Visualization observer readout
Local Sidereal Time
08:33:27
Azimuth
Unknown
Elevation
Unknown
Doppler factor
Unknown
Orbital elements
Apogee altitude
800.144 km
Perigee altitude
664.418 km
Semi-major axis
7,110.418 km
Eccentricity
0.00954
Inclination
88.9913°
RAAN
269.9267°
Arg. of periapsis
288.0938°
True anomaly
72.0269°
Mean anomaly
70.9889°
Eccentric anomaly
71.5075°
Mean motion
3.61993 °/min
Orbital period
99.45 mins
BSTAR
0.00004814
Loading maneuver chart data...
Computing Atmospheric mass density...
Loading historical data...
Loading historical data...
Loading historical data...
Loading historical data...
Loading historical data...
Loading historical data...
Loading historical data...

Documentation

Showing up to 5 results
|